Location: Five Points
(32.7431°N, 117.1848°W)
Time: 15:05:40
(UTC+00:00)

Daily predictions for brighter satellites

Satellite Brightness Start Highest point End
(mag) Time Altitude Azimuth Time Altitude Azimuth Time Altitude Azimuth
Hubble Space Telescope 2.6 12:11:10 29° SE 12:11:10 29° SE 12:13:27 10° ESE
Cosmos 1833 Rocket 3.8 12:17:12 31° SSW 12:17:12 31° SSW 12:20:13 10° S
Cosmos 1891 Rocket 4.4 12:15:25 61° NNW 12:16:39 81° W 12:23:05 10° S
Cosmos 540 Rocket 3.5 12:19:59 74° NE 12:20:15 77° ENE 12:25:23 10° SSE
OAO 3 Rocket 3.4 12:23:16 65° NE 12:23:16 65° NE 12:27:46 10° E
Cosmos 1513 Rocket 4.4 12:23:23 51° NNW 12:25:00 72° W 12:31:22 10° S
USA 238 DEB 3.4 12:28:28 36° SW 12:31:15 77° WNW 12:37:57 10° NNE
USA 238 3.4 12:28:26 35° SW 12:31:22 78° WNW 12:38:04 10° NNE
Cosmos 1816 Rocket 4.3 12:27:19 10° S 12:33:29 82° W 12:39:46 10° N
H-2A R/B 3.3 12:32:06 10° NNE 12:35:44 54° E 12:39:23 10° S
Cosmos 2034 Rocket 4.0 12:29:57 10° N 12:36:13 85° E 12:42:31 10° S
USA 215 4.4 12:37:58 10° E 12:43:47 36° NE 12:48:34 15° NNW
DELTA 2 R/B (1) 4.0 12:42:15 26° SW 12:45:14 58° SSE 12:50:40 10° ENE
COSMOS 2455 3.4 12:48:03 35° WSW 12:48:03 35° WSW 12:53:14 10° S
Cosmos 2369 Rocket 2.8 12:43:28 10° S 12:48:54 57° ESE 12:54:22 10° NNE
OAO 1 4.5 12:52:12 43° WNW 12:54:02 82° N 12:59:35 10° E
Tsikada Rocket 3.8 12:48:33 10° SSW 12:54:41 70° W 13:00:54 10° N
Centaur D-1AR AC-40 4.4 12:51:20 20° WSW 12:57:03 51° S 22:19:59 10° SE
Cosmos 841 Rocket 3.4 12:55:42 33° NW 12:57:49 59° WSW 13:02:53 10° S
IUS-1 SRM-2 3.7 12:57:12 25° SW 12:58:48 39° S 13:08:19 10° ESE
Cosmos 2151 3.4 13:02:09 10° SSW 13:06:09 39° W 13:10:11 10° N
Cosmos 2098 Rocket 3.2 13:04:19 10° S 13:07:29 56° E 13:11:23 10° NNE
MOS 1-B Rocket 4.1 13:01:35 10° S 13:08:33 78° WSW 13:14:35 10° NNW
CZ-2C R/B 4.4 13:06:30 10° NNE 13:11:05 40° E 13:15:50 10° SSE
Iridium 2 3.9 13:07:55 10° S 13:11:41 72° E 13:15:27 10° N
Envisat 3.0 13:06:56 10° N 13:11:54 56° WNW 13:16:50 10° SSW
ADEOS 3.8 13:07:46 10° NNE 13:12:59 72° ESE 13:18:10 10° S
SJ-12 4.2 13:09:46 10° N 13:13:42 43° WNW 13:17:37 10° SW
YAOGAN 6 3.4 13:20:13 29° WNW 13:20:13 29° WNW 13:23:18 10° SW
SKYMED 2 3.5 13:15:56 10° S 13:20:14 76° WSW 13:24:36 10° NNW
Cosmos 968 Rocket 3.7 13:17:39 10° SW 13:22:33 44° WNW 13:27:28 10° N
FALCON 9 R/B 4.0 13:05:42 19° W 13:25:27 83° N 13:32:08 10° E
Cosmos 2082 Rocket 3.1 13:24:33 20° WNW 13:27:04 28° WSW 13:31:45 10° SSW
CZ-2C R/B 2.7 13:22:44 10° S 13:28:16 68° WSW 13:33:43 10° NNW
Cosmos 1943 Rocket 3.1 13:24:00 10° WSW 13:28:37 25° WNW 13:33:17 10° N
Cosmos 1656 Rocket 3.5 13:23:22 10° SSW 13:28:45 88° WNW 13:34:12 10° NNE
Cosmos 1570 Rocket 4.0 13:24:22 10° NNW 13:29:32 59° WSW 13:34:41 10° S
Okean 3 Rocket 3.7 13:27:39 10° S 13:32:10 86° E 13:36:43 10° N
Cosmos 1862 3.2 13:30:08 10° S 13:34:03 81° W 13:38:00 10° N
Meteor 2-3 Rocket 4.5 13:29:36 10° SW 13:34:26 29° WNW 13:39:21 10° NNW
Cosmos 1782 2.9 13:31:24 10° NNW 13:35:14 50° W 13:39:03 10° S
CZ-4B R/B 2.8 13:34:07 10° NNE 13:37:41 73° ESE 13:41:15 10° S
Cosmos 1812 2.6 13:36:27 10° N 13:40:17 85° W 13:44:07 10° S
Meteor 1-31 Rocket 3.8 13:40:37 10° NNW 13:43:47 24° WNW 13:46:58 10° SW
NOAA 11 4.2 13:38:49 10° N 13:44:15 67° WNW 13:49:41 10° SSW
CENTAUR R/B 3.8 13:42:48 13° WNW 13:45:56 19° NW 13:50:29 10° N
H-2A R/B 3.4 13:42:13 10° SE 13:46:06 39° ENE 13:50:06 10° N
DMSP B5D2-2 4.4 13:42:40 10° SSE 13:47:52 71° ENE 13:53:03 10° N
CZ-4C R/B 2.8 13:44:54 10° S 13:48:02 54° W 13:51:07 10° NNW
Hubble Space Telescope 2.0 13:46:38 10° WSW 13:50:23 34° SSW 13:54:07 10° SE
Cosmos 1867 3.6 13:45:01 10° NNW 13:50:28 70° WSW 13:55:51 10° SSE
Gbstr 26 Del rocket 3.1 13:47:12 10° NW 13:51:10 72° NE 13:55:49 10° SE
Cosmos 1766 Rocket 3.9 13:50:14 10° SSW 13:54:22 42° W 13:58:30 10° N
APEX 3.4 13:51:38 10° NW 13:54:22 34° WSW 13:57:30 10° S
H-2A R/B 4.3 13:50:29 10° NE 13:54:40 28° E 13:58:52 10° SSE
Landsat 5 4.2 13:51:31 10° SSW 13:55:41 38° W 13:59:54 10° NNW
Cosmos 921 Rocket 3.1 13:56:49 10° NNW 14:01:10 61° WSW 14:05:33 10° S
CZ-3B R/B 2.9 14:01:20 10° S 14:01:44 10° S 14:02:08 10° SSE
OAO 3 Rocket 3.5 14:01:30 10° W 14:06:25 63° SSW 14:11:16 10° ESE
CZ-4B R/B 3.4 14:04:47 10° SE 14:07:45 30° ENE 14:10:43 10° NNE
COSMO-SKYMED 1 4.0 14:05:18 10° SW 14:08:27 20° W 14:11:36 10° NW
Cosmos 1503 Rocket 4.2 14:04:08 10° SW 14:09:11 50° WNW 14:14:20 10° N
ATLAS 3B R/B 3.6 14:03:26 10° S 14:09:38 52° ESE 14:16:03 10° NE
IRAS Rocket 4.3 14:04:20 10° S 14:09:48 65° WSW 14:15:17 10° NNW
Meteor 2-8 Rocket 4.5 14:05:53 10° N 14:12:01 74° W 14:18:06 10° S
